| time (UTC) | temp F | wind direction | speed knots | gust knots | rain 1hr in | rain 24hr in | rain mn in | humidity % | barometer mb |
| 20260506013744 | 61 | 10 | 1.7 | 1.7 | 0.00 | 0.00 | 0.00 | 73 | 997.0 |
| 20260506013537 | 61 | 127 | 0.9 | 1.7 | 0.00 | 0.00 | 0.00 | 73 | 997.0 |
| 20260506013332 | 61 | 349 | 0.9 | 1.7 | 0.00 | 0.00 | 0.00 | 72 | 997.0 |
| 20260506013128 | 62 | 16 | 1.7 | 2.6 | 0.00 | 0.00 | 0.00 | 71 | 997.0 |
| 20260506012925 | 63 | 185 | 3.5 | 6.1 | 0.00 | 0.00 | 0.00 | 71 | 997.0 |
| 20260506012720 | 63 | 190 | 0.9 | 1.7 | 0.00 | 0.00 | 0.00 | 70 | 997.0 |
| 20260506012517 | 63 | 4 | 3.5 | 5.2 | 0.00 | 0.00 | 0.00 | 71 | 997.0 |
| 20260506012313 | 62 | 348 | 1.7 | 2.6 | 0.00 | 0.00 | 0.00 | 74 | 997.0 |
| 20260506012109 | 62 | 319 | 2.6 | 2.6 | 0.00 | 0.00 | 0.00 | 71 | 997.0 |
| 20260506011906 | 62 | 343 | 1.7 | 3.5 | 0.00 | 0.00 | 0.00 | 72 | 996.6 |
| 20260506011702 | 62 | 346 | 0.9 | 1.7 | 0.00 | 0.00 | 0.00 | 70 | 996.6 |
| 20260506011458 | 62 | 270 | 4.3 | 6.1 | 0.00 | 0.00 | 0.00 | 72 | 996.6 |
| 20260506011254 | 63 | 320 | 0.0 | 1.7 | 0.00 | 0.00 | 0.00 | 70 | 996.6 |
| 20260506011232 | 63 | 328 | 0.9 | 1.7 | 0.00 | 0.00 | 0.00 | 69 | 996.6 |
| 20260506010816 | 63 | 332 | 0.9 | 1.7 | 0.00 | 0.00 | 0.00 | 72 | 996.6 |
| 20260506010612 | 62 | 312 | 0.0 | 0.9 | 0.00 | 0.00 | 0.00 | 72 | 997.0 |
| 20260506010408 | 62 | 286 | 3.5 | 4.3 | 0.00 | 0.00 | 0.00 | 74 | 997.0 |
| 20260506010204 | 61 | 330 | 0.9 | 1.7 | 0.00 | 0.00 | 0.00 | 76 | 997.0 |
| 20260506010001 | 61 | 330 | 0.0 | 0.9 | 0.00 | 0.00 | 0.00 | 72 | 997.0 |
| 20260506005757 | 62 | 338 | 0.9 | 1.7 | 0.00 | 0.00 | 0.00 | 73 | 997.0 |
| 20260506005553 | 61 | 332 | 0.9 | 1.7 | 0.00 | 0.00 | 0.00 | 73 | 997.0 |
| 20260506005349 | 60 | 334 | 0.9 | 1.7 | 0.00 | 0.00 | 0.00 | 73 | 997.0 |
| 20260506005145 | 60 | 325 | 1.7 | 2.6 | 0.00 | 0.00 | 0.00 | 78 | 997.0 |
| 20260506004941 | 60 | 338 | 3.5 | 4.3 | 0.00 | 0.00 | 0.00 | 78 | 997.0 |
| 20260506004737 | 60 | 326 | 1.7 | 2.6 | 0.00 | 0.00 | 0.00 | 77 | 996.6 |
| 20260506004533 | 60 | 337 | 1.7 | 2.6 | 0.00 | 0.00 | 0.00 | 75 | 997.0 |
| 20260506004329 | 59 | 252 | 0.9 | 1.7 | 0.00 | 0.00 | 0.00 | 78 | 997.0 |
| 20260506004124 | 59 | 342 | 2.6 | 4.3 | 0.00 | 0.00 | 0.00 | 77 | 997.0 |
| 20260506003921 | 59 | 340 | 3.5 | 4.3 | 0.00 | 0.00 | 0.00 | 78 | 997.0 |
| 20260506003717 | 59 | 327 | 3.5 | 6.1 | 0.00 | 0.00 | 0.00 | 79 | 996.6 |
| 20260506003512 | 59 | 334 | 1.7 | 1.7 | 0.00 | 0.00 | 0.00 | 79 | 996.6 |
| 20260506003309 | 60 | 345 | 3.5 | 5.2 | 0.00 | 0.00 | 0.00 | 77 | 997.0 |
| 20260506003247 | 60 | 340 | 2.6 | 4.3 | 0.00 | 0.00 | 0.00 | 78 | 997.0 |
| 20260506002828 | 60 | 345 | 1.7 | 1.7 | 0.00 | 0.00 | 0.00 | 77 | 997.0 |
| 20260506002624 | 60 | 327 | 2.6 | 3.5 | 0.00 | 0.00 | 0.00 | 77 | 997.0 |
| 20260506002420 | 60 | 336 | 5.2 | 6.1 | 0.00 | 0.00 | 0.00 | 79 | 997.0 |
| 20260506002216 | 60 | 345 | 3.5 | 4.3 | 0.00 | 0.00 | 0.00 | 78 | 997.0 |
| 20260506002012 | 60 | 343 | 3.5 | 4.3 | 0.00 | 0.00 | 0.00 | 79 | 997.0 |
| 20260506001808 | 60 | 353 | 3.5 | 4.3 | 0.00 | 0.00 | 0.00 | 80 | 997.0 |
| 20260506001605 | 60 | 342 | 1.7 | 2.6 | 0.00 | 0.00 | 0.00 | 78 | 996.6 |
| 20260506001400 | 60 | 351 | 4.3 | 6.1 | 0.00 | 0.00 | 0.00 | 79 | 996.6 |
| 20260506001157 | 60 | 345 | 2.6 | 4.3 | 0.00 | 0.00 | 0.00 | 76 | 997.0 |
| 20260506000953 | 60 | 332 | 2.6 | 3.5 | 0.00 | 0.00 | 0.00 | 76 | 997.0 |
| 20260506000749 | 60 | 5 | 2.6 | 4.3 | 0.00 | 0.00 | 0.00 | 76 | 996.6 |
| 20260506000727 | 60 | 347 | 0.9 | 1.7 | 0.00 | 0.00 | 0.00 | 79 | 997.0 |
| 20260506000309 | 60 | 343 | 3.5 | 4.3 | 0.00 | 0.00 | 0.00 | 78 | 997.0 |
| 20260506000104 | 60 | 321 | 2.6 | 3.5 | 0.00 | 0.00 | 0.00 | 78 | 997.0 |
| 20260505235900 | 60 | 330 | 1.7 | 3.5 | 0.00 | 0.00 | 0.00 | 78 | 997.0 |
| 20260505235657 | 59 | 352 | 5.2 | 7.0 | 0.00 | 0.00 | 0.00 | 79 | 997.0 |
| 20260505235453 | 59 | 343 | 4.3 | 6.1 | 0.00 | 0.00 | 0.00 | 79 | 997.3 |
| 20260505235249 | 59 | 327 | 0.9 | 1.7 | 0.00 | 0.00 | 0.00 | 78 | 997.3 |
| 20260505235045 | 59 | 285 | 0.0 | 1.7 | 0.00 | 0.00 | 0.00 | 79 | 997.0 |
| 20260505234842 | 59 | 335 | 3.5 | 5.2 | 0.00 | 0.00 | 0.00 | 78 | 997.0 |
| 20260505234637 | 59 | 152 | 0.9 | 1.7 | 0.00 | 0.00 | 0.00 | 77 | 997.0 |
| 20260505234433 | 60 | 344 | 3.5 | 4.3 | 0.00 | 0.00 | 0.00 | 79 | 997.0 |
| 20260505234229 | 60 | 338 | 0.9 | 0.9 | 0.00 | 0.00 | 0.00 | 79 | 997.0 |
| 20260505234207 | 60 | 322 | 0.9 | 1.7 | 0.00 | 0.00 | 0.00 | 78 | 997.0 |
| 20260505233749 | 59 | 295 | 0.9 | 2.6 | 0.00 | 0.00 | 0.00 | 82 | 997.3 |
| 20260505233546 | 59 | 310 | 0.0 | 1.7 | 0.00 | 0.00 | 0.00 | 77 | 997.3 |
| 20260505233342 | 59 | 341 | 3.5 | 4.3 | 0.00 | 0.00 | 0.00 | 78 | 997.3 |
| 20260505233138 | 60 | 338 | 3.5 | 4.3 | 0.00 | 0.00 | 0.00 | 79 | 997.3 |
| 20260505233116 | 60 | 335 | 1.7 | 2.6 | 0.00 | 0.00 | 0.00 | 80 | 997.3 |
| 20260505232659 | 60 | 327 | 0.0 | 0.9 | 0.00 | 0.00 | 0.00 | 76 | 997.3 |
| 20260505232455 | 60 | 344 | 1.7 | 3.5 | 0.00 | 0.00 | 0.00 | 76 | 997.3 |
| 20260505232433 | 60 | 347 | 0.0 | 0.9 | 0.00 | 0.00 | 0.00 | 75 | 997.3 |
| 20260505232014 | 60 | 7 | 0.9 | 2.6 | 0.00 | 0.00 | 0.00 | 78 | 997.3 |
| 20260505231810 | 60 | 312 | 0.9 | 1.7 | 0.00 | 0.00 | 0.00 | 77 | 997.3 |
| 20260505231607 | 60 | 345 | 4.3 | 4.3 | 0.00 | 0.00 | 0.00 | 78 | 997.3 |
| 20260505231545 | 60 | 335 | 2.6 | 3.5 | 0.00 | 0.00 | 0.00 | 77 | 997.3 |
| 20260505231126 | 60 | 327 | 0.9 | 1.7 | 0.00 | 0.00 | 0.00 | 75 | 997.3 |
| 20260505230923 | 60 | 327 | 0.0 | 0.9 | 0.00 | 0.00 | 0.00 | 77 | 997.3 |
| 20260505230719 | 60 | 328 | 0.0 | 0.0 | 0.00 | 0.00 | 0.00 | 75 | 997.3 |
| 20260505230514 | 60 | 340 | 1.7 | 2.6 | 0.00 | 0.00 | 0.00 | 76 | 997.3 |
| 20260505230311 | 60 | 3 | 0.9 | 1.7 | 0.00 | 0.00 | 0.00 | 76 | 997.3 |
| 20260505230107 | 60 | 340 | 2.6 | 3.5 | 0.00 | 0.00 | 0.00 | 77 | 997.3 |
| 20260505225903 | 59 | 354 | 1.7 | 1.7 | 0.00 | 0.00 | 0.00 | 79 | 997.3 |
| 20260505225659 | 59 | 335 | 3.5 | 4.3 | 0.00 | 0.00 | 0.00 | 76 | 997.3 |
| 20260505225637 | 59 | 355 | 4.3 | 5.2 | 0.00 | 0.00 | 0.00 | 79 | 997.3 |
| 20260505225220 | 60 | 353 | 4.3 | 6.1 | 0.00 | 0.00 | 0.00 | 77 | 997.3 |
| 20260505225016 | 59 | 341 | 2.6 | 5.2 | 0.00 | 0.00 | 0.00 | 80 | 997.3 |
| 20260505224812 | 59 | 262 | 1.7 | 3.5 | 0.00 | 0.00 | 0.00 | 78 | 997.3 |
| 20260505224608 | 59 | 309 | 0.9 | 1.7 | 0.00 | 0.00 | 0.00 | 80 | 997.3 |
| 20260505224404 | 59 | 322 | 0.9 | 1.7 | 0.00 | 0.00 | 0.00 | 78 | 997.3 |
| 20260505224201 | 59 | 356 | 1.7 | 2.6 | 0.00 | 0.00 | 0.00 | 79 | 997.3 |
| 20260505223957 | 59 | 340 | 0.9 | 1.7 | 0.00 | 0.00 | 0.00 | 81 | 997.3 |
| 20260505223935 | 59 | 337 | 1.7 | 2.6 | 0.00 | 0.00 | 0.00 | 79 | 997.6 |
| 20260505223517 | 59 | 334 | 2.6 | 3.5 | 0.00 | 0.00 | 0.00 | 80 | 997.3 |
| 20260505223455 | 59 | 337 | 1.7 | 1.7 | 0.00 | 0.00 | 0.00 | 79 | 997.3 |
| 20260505223036 | 59 | 338 | 1.7 | 2.6 | 0.00 | 0.00 | 0.00 | 80 | 997.6 |
| 20260505222833 | 59 | 344 | 8.7 | 9.6 | 0.00 | 0.00 | 0.00 | 78 | 997.6 |
| 20260505222629 | 59 | 338 | 2.6 | 4.3 | 0.00 | 0.00 | 0.00 | 80 | 997.6 |
| 20260505222425 | 59 | 302 | 2.6 | 3.5 | 0.00 | 0.00 | 0.00 | 80 | 997.6 |
| 20260505222221 | 59 | 344 | 3.5 | 3.5 | 0.00 | 0.00 | 0.00 | 79 | 997.6 |
| 20260505222159 | 59 | 357 | 3.5 | 4.3 | 0.00 | 0.00 | 0.00 | 81 | 997.6 |
| 20260505221740 | 59 | 352 | 4.3 | 6.1 | 0.00 | 0.00 | 0.00 | 79 | 997.6 |
| 20260505221536 | 59 | 339 | 2.6 | 2.6 | 0.00 | 0.00 | 0.00 | 79 | 997.6 |
| 20260505221332 | 59 | 326 | 0.9 | 1.7 | 0.00 | 0.00 | 0.00 | 78 | 997.6 |
| 20260505221128 | 59 | 337 | 1.7 | 2.6 | 0.00 | 0.00 | 0.00 | 81 | 997.6 |
| 20260505221106 | 59 | 341 | 7.0 | 9.6 | 0.00 | 0.00 | 0.00 | 79 | 997.6 |
| 20260505220647 | 59 | 348 | 4.3 | 6.1 | 0.00 | 0.00 | 0.00 | 82 | 997.6 |
| 20260505220624 | 59 | 331 | 1.7 | 2.6 | 0.00 | 0.00 | 0.00 | 78 | 997.6 |
| 20260505220206 | 59 | 337 | 0.0 | 0.9 | 0.00 | 0.00 | 0.00 | 78 | 998.0 |
| 20260505220002 | 59 | 339 | 2.6 | 5.2 | 0.00 | 0.00 | 0.00 | 79 | 997.6 |
| 20260505215758 | 59 | 342 | 7.0 | 8.7 | 0.00 | 0.00 | 0.00 | 78 | 997.6 |
| 20260505215555 | 60 | 340 | 0.0 | 1.7 | 0.00 | 0.00 | 0.00 | 77 | 997.6 |
| 20260505215351 | 59 | 7 | 3.5 | 5.2 | 0.00 | 0.00 | 0.00 | 80 | 997.6 |
| 20260505215329 | 59 | 0 | 2.6 | 4.3 | 0.00 | 0.00 | 0.00 | 80 | 997.6 |
| 20260505215053 | 59 | 338 | 4.3 | 6.1 | 0.00 | 0.00 | 0.00 | 78 | 997.6 |
| 20260505214635 | 59 | 351 | 5.2 | 6.1 | 0.00 | 0.00 | 0.00 | 81 | 997.6 |
| 20260505214431 | 59 | 319 | 0.9 | 1.7 | 0.00 | 0.00 | 0.00 | 79 | 997.6 |
| 20260505214225 | 59 | 330 | 6.1 | 7.8 | 0.00 | 0.00 | 0.00 | 79 | 997.6 |
| 20260505214021 | 59 | 330 | 1.7 | 2.6 | 0.00 | 0.00 | 0.00 | 78 | 997.6 |
| 20260505213817 | 59 | 323 | 0.0 | 0.9 | 0.00 | 0.00 | 0.00 | 78 | 997.6 |
| 20260505213614 | 59 | 321 | 0.9 | 1.7 | 0.00 | 0.00 | 0.00 | 76 | 997.6 |
| 20260505213410 | 59 | 317 | 1.7 | 3.5 | 0.00 | 0.00 | 0.00 | 80 | 998.0 |
| 20260505213207 | 59 | 275 | 2.6 | 3.5 | 0.00 | 0.00 | 0.00 | 78 | 997.6 |
| 20260505212959 | 59 | 335 | 0.9 | 0.9 | 0.00 | 0.00 | 0.00 | 79 | 997.6 |
| 20260505212755 | 59 | 339 | 5.2 | 6.1 | 0.00 | 0.00 | 0.00 | 79 | 997.6 |
| 20260505212551 | 59 | 328 | 3.5 | 5.2 | 0.00 | 0.00 | 0.00 | 80 | 997.6 |
| 20260505212347 | 59 | 264 | 4.3 | 6.1 | 0.00 | 0.00 | 0.00 | 82 | 997.6 |
| 20260505212143 | 59 | 188 | 1.7 | 1.7 | 0.00 | 0.00 | 0.00 | 79 | 997.6 |
| 20260505212121 | 59 | 258 | 0.9 | 4.3 | 0.00 | 0.00 | 0.00 | 80 | 997.6 |
| 20260505211703 | 59 | 346 | 5.2 | 7.8 | 0.00 | 0.00 | 0.00 | 80 | 997.6 |
| 20260505211459 | 59 | 336 | 5.2 | 6.1 | 0.00 | 0.00 | 0.00 | 80 | 998.0 |
| 20260505211255 | 59 | 334 | 3.5 | 4.3 | 0.00 | 0.00 | 0.00 | 81 | 997.6 |
| 20260505211051 | 59 | 344 | 6.1 | 7.0 | 0.00 | 0.00 | 0.00 | 81 | 998.0 |
| 20260505210848 | 59 | 319 | 2.6 | 3.5 | 0.00 | 0.00 | 0.00 | 80 | 997.6 |
| 20260505210643 | 59 | 350 | 3.5 | 4.3 | 0.00 | 0.00 | 0.00 | 81 | 997.6 |
| 20260505210440 | 59 | 346 | 1.7 | 5.2 | 0.00 | 0.00 | 0.00 | 79 | 998.0 |
| 20260505210236 | 59 | 260 | 4.3 | 6.1 | 0.00 | 0.00 | 0.00 | 79 | 998.0 |
| 20260505210032 | 59 | 4 | 0.0 | 0.9 | 0.00 | 0.00 | 0.00 | 77 | 997.6 |
| 20260505205828 | 59 | 290 | 0.9 | 1.7 | 0.00 | 0.00 | 0.00 | 79 | 997.6 |
| 20260505205624 | 59 | 282 | 2.6 | 3.5 | 0.00 | 0.00 | 0.00 | 79 | 998.0 |
| 20260505205420 | 59 | 265 | 2.6 | 6.1 | 0.00 | 0.00 | 0.00 | 81 | 998.0 |
| 20260505205216 | 59 | 286 | 1.7 | 2.6 | 0.00 | 0.00 | 0.00 | 79 | 998.0 |
| 20260505205013 | 58 | 246 | 4.3 | 5.2 | 0.00 | 0.00 | 0.00 | 80 | 998.0 |
| 20260505204951 | 59 | 300 | 0.9 | 1.7 | 0.00 | 0.00 | 0.00 | 79 | 998.0 |
| 20260505204533 | 59 | 340 | 0.9 | 2.6 | 0.00 | 0.00 | 0.00 | 80 | 997.6 |
| 20260505204329 | 59 | 269 | 0.9 | 3.5 | 0.00 | 0.00 | 0.00 | 80 | 997.6 |
| 20260505204126 | 59 | 331 | 1.7 | 3.5 | 0.00 | 0.00 | 0.00 | 79 | 998.0 |
| 20260505203922 | 59 | 265 | 2.6 | 4.3 | 0.00 | 0.00 | 0.00 | 81 | 998.0 |
| 20260505203719 | 59 | 82 | 2.6 | 6.1 | 0.00 | 0.00 | 0.00 | 80 | 998.0 |
| 20260505203515 | 59 | 314 | 0.9 | 1.7 | 0.00 | 0.00 | 0.00 | 80 | 998.0 |
| 20260505203311 | 59 | 279 | 7.8 | 10.4 | 0.00 | 0.00 | 0.00 | 79 | 998.0 |
| 20260505203107 | 59 | 321 | 2.6 | 4.3 | 0.00 | 0.00 | 0.00 | 78 | 998.0 |
| 20260505202903 | 59 | 270 | 2.6 | 5.2 | 0.00 | 0.00 | 0.00 | 81 | 998.0 |
| 20260505202842 | 59 | 335 | 6.1 | 7.8 | 0.00 | 0.00 | 0.00 | 80 | 998.0 |
| 20260505202422 | 59 | 271 | 7.0 | 7.8 | 0.00 | 0.00 | 0.00 | 78 | 998.0 |
| 20260505202219 | 59 | 319 | 4.3 | 5.2 | 0.00 | 0.00 | 0.00 | 82 | 998.0 |
| 20260505202015 | 59 | 311 | 4.3 | 7.8 | 0.00 | 0.00 | 0.00 | 78 | 998.0 |
| 20260505201953 | 59 | 313 | 2.6 | 7.8 | 0.00 | 0.00 | 0.00 | 78 | 998.0 |
| 20260505201534 | 59 | 287 | 0.9 | 1.7 | 0.00 | 0.00 | 0.00 | 79 | 998.0 |
| 20260505201331 | 59 | 318 | 0.0 | 0.9 | 0.00 | 0.00 | 0.00 | 77 | 998.0 |
| 20260505201127 | 59 | 288 | 5.2 | 6.1 | 0.00 | 0.00 | 0.00 | 78 | 998.0 |
| 20260505200923 | 59 | 238 | 6.1 | 7.8 | 0.00 | 0.00 | 0.00 | 78 | 998.0 |
| 20260505200720 | 59 | 269 | 1.7 | 5.2 | 0.00 | 0.00 | 0.00 | 78 | 998.0 |
| 20260505200515 | 59 | 301 | 0.0 | 1.7 | 0.00 | 0.00 | 0.00 | 76 | 998.0 |
| 20260505200454 | 59 | 276 | 5.2 | 6.1 | 0.00 | 0.00 | 0.00 | 78 | 998.0 |
| 20260505200037 | 59 | 336 | 0.9 | 1.7 | 0.00 | 0.00 | 0.00 | 78 | 998.0 |
| 20260505195833 | 59 | 291 | 1.7 | 3.5 | 0.00 | 0.00 | 0.00 | 81 | 997.6 |
| 20260505195629 | 59 | 336 | 0.0 | 1.7 | 0.00 | 0.00 | 0.00 | 80 | 998.0 |
| 20260505195426 | 59 | 338 | 1.7 | 3.5 | 0.00 | 0.00 | 0.00 | 79 | 998.0 |
| 20260505195222 | 59 | 332 | 0.9 | 1.7 | 0.00 | 0.00 | 0.00 | 79 | 998.0 |
| 20260505195200 | 58 | 294 | 0.9 | 1.7 | 0.00 | 0.00 | 0.00 | 80 | 998.0 |
| 20260505194742 | 58 | 244 | 4.3 | 5.2 | 0.00 | 0.00 | 0.00 | 78 | 998.0 |
| 20260505194538 | 58 | 292 | 2.6 | 4.3 | 0.00 | 0.00 | 0.00 | 80 | 998.0 |
| 20260505194334 | 58 | 267 | 2.6 | 4.3 | 0.00 | 0.00 | 0.00 | 82 | 998.0 |
| 20260505194130 | 58 | 347 | 6.1 | 7.0 | 0.00 | 0.00 | 0.00 | 79 | 998.0 |
| 20260505193926 | 58 | 336 | 0.9 | 1.7 | 0.00 | 0.00 | 0.00 | 80 | 998.0 |
| 20260505193722 | 59 | 326 | 2.6 | 4.3 | 0.00 | 0.00 | 0.00 | 78 | 997.6 |
| 20260505193519 | 59 | 200 | 1.7 | 1.7 | 0.00 | 0.00 | 0.00 | 82 | 998.0 |
| 20260505193315 | 59 | 298 | 2.6 | 4.3 | 0.00 | 0.00 | 0.00 | 80 | 998.0 |
| 20260505193112 | 58 | 291 | 1.7 | 2.6 | 0.00 | 0.00 | 0.00 | 78 | 998.0 |
| 20260505192907 | 58 | 306 | 0.0 | 1.7 | 0.00 | 0.00 | 0.00 | 79 | 998.3 |
| 20260505192704 | 58 | 297 | 0.9 | 2.6 | 0.00 | 0.00 | 0.00 | 80 | 998.0 |
| 20260505192500 | 58 | 292 | 2.6 | 3.5 | 0.00 | 0.00 | 0.00 | 80 | 998.0 |
| 20260505192256 | 58 | 341 | 4.3 | 6.1 | 0.00 | 0.00 | 0.00 | 79 | 998.0 |
| 20260505192052 | 58 | 330 | 2.6 | 4.3 | 0.00 | 0.00 | 0.00 | 81 | 998.0 |
| 20260505191848 | 58 | 341 | 0.9 | 1.7 | 0.00 | 0.00 | 0.00 | 77 | 998.0 |
| 20260505191645 | 58 | 310 | 0.9 | 1.7 | 0.00 | 0.00 | 0.00 | 81 | 998.0 |
| 20260505191441 | 57 | 138 | 0.9 | 1.7 | 0.00 | 0.00 | 0.00 | 80 | 998.0 |
| 20260505191236 | 58 | 255 | 4.3 | 5.2 | 0.00 | 0.00 | 0.00 | 79 | 998.0 |
| 20260505191033 | 58 | 200 | 1.7 | 1.7 | 0.00 | 0.00 | 0.00 | 83 | 998.0 |
| 20260505190829 | 57 | 303 | 0.9 | 1.7 | 0.00 | 0.00 | 0.00 | 80 | 998.0 |
| 20260505190625 | 58 | 195 | 3.5 | 4.3 | 0.00 | 0.00 | 0.00 | 81 | 998.0 |
| 20260505190603 | 57 | 261 | 3.5 | 4.3 | 0.00 | 0.00 | 0.00 | 82 | 998.0 |
| 20260505190146 | 57 | 269 | 2.6 | 2.6 | 0.00 | 0.00 | 0.00 | 83 | 998.0 |
| 20260505185941 | 58 | 177 | 2.6 | 2.6 | 0.00 | 0.00 | 0.00 | 81 | 998.0 |
| 20260505185737 | 58 | 166 | 1.7 | 2.6 | 0.00 | 0.00 | 0.00 | 81 | 998.0 |
| 20260505185534 | 57 | 328 | 0.0 | 0.9 | 0.00 | 0.00 | 0.00 | 84 | 998.0 |
| 20260505185330 | 56 | 323 | 0.9 | 1.7 | 0.00 | 0.00 | 0.00 | 86 | 998.0 |
| 20260505185126 | 56 | 307 | 1.7 | 1.7 | 0.00 | 0.00 | 0.00 | 87 | 998.0 |
| 20260505184922 | 56 | 182 | 2.6 | 4.3 | 0.00 | 0.00 | 0.00 | 85 | 998.3 |
| 20260505184719 | 56 | 215 | 2.6 | 4.3 | 0.00 | 0.00 | 0.00 | 85 | 998.3 |
| 20260505184515 | 55 | 285 | 0.9 | 1.7 | 0.00 | 0.00 | 0.00 | 84 | 998.0 |
| 20260505184310 | 55 | 188 | 2.6 | 2.6 | 0.00 | 0.00 | 0.00 | 86 | 998.0 |
| 20260505184107 | 55 | 180 | 0.9 | 1.7 | 0.00 | 0.00 | 0.00 | 84 | 998.0 |
| 20260505183903 | 55 | 172 | 0.9 | 1.7 | 0.00 | 0.00 | 0.00 | 85 | 998.3 |
| 20260505183659 | 55 | 190 | 3.5 | 4.3 | 0.00 | 0.00 | 0.00 | 88 | 998.0 |
| 20260505183456 | 55 | 201 | 3.5 | 5.2 | 0.00 | 0.00 | 0.00 | 86 | 998.3 |
| 20260505183252 | 55 | 204 | 4.3 | 4.3 | 0.00 | 0.00 | 0.00 | 84 | 998.0 |
| 20260505183230 | 56 | 283 | 2.6 | 3.5 | 0.00 | 0.00 | 0.00 | 86 | 998.0 |
| 20260505182813 | 55 | 261 | 3.5 | 4.3 | 0.00 | 0.00 | 0.00 | 88 | 998.0 |
| 20260505182609 | 55 | 293 | 4.3 | 5.2 | 0.00 | 0.00 | 0.00 | 86 | 998.0 |
| 20260505182406 | 55 | 288 | 1.7 | 2.6 | 0.00 | 0.00 | 0.00 | 86 | 998.0 |
| 20260505182202 | 55 | 208 | 3.5 | 4.3 | 0.00 | 0.00 | 0.00 | 86 | 998.0 |
| 20260505182139 | 55 | 239 | 2.6 | 3.5 | 0.00 | 0.00 | 0.00 | 85 | 998.0 |
| 20260505181903 | 55 | 199 | 2.6 | 3.5 | 0.00 | 0.00 | 0.00 | 87 | 998.0 |
| 20260505181628 | 55 | 263 | 3.5 | 4.3 | 0.00 | 0.00 | 0.00 | 88 | 998.0 |
| 20260505181209 | 55 | 301 | 0.9 | 1.7 | 0.00 | 0.00 | 0.00 | 86 | 998.3 |
| 20260505181006 | 55 | 312 | 0.9 | 1.7 | 0.00 | 0.00 | 0.00 | 88 | 998.3 |
| 20260505180944 | 55 | 242 | 2.6 | 4.3 | 0.00 | 0.00 | 0.00 | 89 | 998.3 |
| 20260505180527 | 54 | 189 | 2.6 | 3.5 | 0.00 | 0.00 | 0.00 | 88 | 998.0 |
| 20260505180323 | 54 | 194 | 2.6 | 3.5 | 0.00 | 0.00 | 0.00 | 88 | 998.0 |
| 20260505180119 | 55 | 205 | 2.6 | 3.5 | 0.00 | 0.00 | 0.00 | 87 | 998.0 |
| 20260505180057 | 55 | 188 | 3.5 | 4.3 | 0.00 | 0.00 | 0.00 | 87 | 998.0 |
| 20260505175639 | 55 | 169 | 1.7 | 2.6 | 0.00 | 0.00 | 0.00 | 87 | 998.0 |
| 20260505175435 | 55 | 355 | 0.0 | 0.9 | 0.00 | 0.00 | 0.00 | 84 | 998.0 |
| 20260505175231 | 55 | 157 | 0.0 | 0.9 | 0.00 | 0.00 | 0.00 | 87 | 998.0 |
| 20260505175027 | 55 | 156 | 0.0 | 0.9 | 0.00 | 0.00 | 0.00 | 88 | 998.0 |
| 20260505174824 | 54 | 164 | 0.0 | 0.0 | 0.00 | 0.00 | 0.00 | 88 | 998.0 |
| 20260505174801 | 54 | 164 | 0.9 | 1.7 | 0.00 | 0.00 | 0.00 | 91 | 998.0 |
| 20260505174526 | 54 | 148 | 0.0 | 1.7 | 0.00 | 0.00 | 0.00 | 88 | 998.0 |
| 20260505174107 | 54 | 193 | 1.7 | 1.7 | 0.00 | 0.00 | 0.00 | 88 | 998.0 |
| 20260505174045 | 54 | 168 | 0.9 | 1.7 | 0.00 | 0.00 | 0.00 | 88 | 998.0 |
| 20260505173809 | 54 | 179 | 3.5 | 4.3 | 0.00 | 0.00 | 0.00 | 89 | 997.6 |
| 20260505173351 | 54 | 171 | 2.6 | 3.5 | 0.00 | 0.00 | 0.00 | 90 | 998.0 |
| 20260505173329 | 54 | 157 | 3.5 | 4.3 | 0.00 | 0.00 | 0.00 | 90 | 997.6 |
| 20260505172911 | 53 | 157 | 2.6 | 3.5 | 0.00 | 0.00 | 0.00 | 90 | 998.0 |
| 20260505172707 | 53 | 169 | 2.6 | 3.5 | 0.00 | 0.00 | 0.00 | 90 | 998.0 |
| 20260505172503 | 53 | 136 | 2.6 | 3.5 | 0.00 | 0.00 | 0.00 | 90 | 998.0 |
| 20260505172259 | 53 | 173 | 3.5 | 4.3 | 0.00 | 0.00 | 0.00 | 90 | 998.0 |
| 20260505172056 | 53 | 137 | 1.7 | 1.7 | 0.00 | 0.00 | 0.00 | 90 | 998.0 |
| 20260505171852 | 53 | 179 | 4.3 | 4.3 | 0.00 | 0.00 | 0.00 | 92 | 997.6 |
| 20260505171649 | 53 | 155 | 2.6 | 3.5 | 0.00 | 0.00 | 0.00 | 90 | 998.0 |
| 20260505171445 | 53 | 184 | 3.5 | 4.3 | 0.00 | 0.00 | 0.00 | 91 | 998.0 |
| 20260505171240 | 53 | 164 | 2.6 | 4.3 | 0.00 | 0.00 | 0.00 | 92 | 998.0 |
| 20260505171037 | 53 | 190 | 3.5 | 4.3 | 0.00 | 0.00 | 0.00 | 92 | 998.0 |
| 20260505170833 | 52 | 189 | 2.6 | 3.5 | 0.00 | 0.00 | 0.00 | 91 | 998.0 |
| 20260505170629 | 52 | 177 | 3.5 | 4.3 | 0.00 | 0.00 | 0.00 | 92 | 998.0 |
| 20260505170425 | 52 | 189 | 0.9 | 1.7 | 0.00 | 0.00 | 0.00 | 91 | 998.0 |
| 20260505170221 | 53 | 170 | 4.3 | 4.3 | 0.00 | 0.00 | 0.00 | 92 | 998.0 |
| 20260505170017 | 52 | 170 | 2.6 | 3.5 | 0.00 | 0.00 | 0.00 | 93 | 998.0 |
| 20260505165814 | 52 | 159 | 3.5 | 4.3 | 0.00 | 0.00 | 0.00 | 92 | 997.6 |
| 20260505165610 | 52 | 213 | 4.3 | 4.3 | 0.00 | 0.00 | 0.00 | 93 | 997.6 |
| 20260505165406 | 52 | 178 | 3.5 | 4.3 | 0.00 | 0.00 | 0.00 | 92 | 997.6 |
| 20260505165202 | 52 | 189 | 4.3 | 5.2 | 0.00 | 0.00 | 0.00 | 93 | 998.0 |
| 20260505164958 | 52 | 171 | 2.6 | 2.6 | 0.00 | 0.00 | 0.00 | 92 | 997.6 |
| 20260505164754 | 52 | 207 | 3.5 | 4.3 | 0.00 | 0.00 | 0.00 | 92 | 997.6 |
| 20260505164551 | 52 | 180 | 3.5 | 4.3 | 0.00 | 0.00 | 0.00 | 93 | 998.0 |
| 20260505164348 | 52 | 179 | 2.6 | 2.6 | 0.00 | 0.00 | 0.00 | 93 | 997.6 |
| 20260505164143 | 52 | 210 | 4.3 | 5.2 | 0.00 | 0.00 | 0.00 | 93 | 998.0 |
| 20260505163940 | 52 | 183 | 2.6 | 2.6 | 0.00 | 0.00 | 0.00 | 93 | 997.6 |
| 20260505163736 | 52 | 209 | 2.6 | 3.5 | 0.00 | 0.00 | 0.00 | 93 | 997.6 |
| 20260505163532 | 52 | 171 | 2.6 | 2.6 | 0.00 | 0.00 | 0.00 | 93 | 997.6 |
| 20260505163328 | 52 | 191 | 4.3 | 4.3 | 0.00 | 0.00 | 0.00 | 93 | 998.0 |
| 20260505163123 | 52 | 183 | 2.6 | 4.3 | 0.00 | 0.00 | 0.00 | 93 | 997.6 |
| 20260505162919 | 52 | 165 | 3.5 | 3.5 | 0.00 | 0.00 | 0.00 | 93 | 997.6 |
| 20260505162715 | 51 | 159 | 3.5 | 4.3 | 0.00 | 0.00 | 0.00 | 93 | 997.6 |
| 20260505162511 | 51 | 180 | 3.5 | 4.3 | 0.00 | 0.00 | 0.00 | 93 | 997.6 |
| 20260505162307 | 51 | 187 | 2.6 | 2.6 | 0.00 | 0.00 | 0.00 | 93 | 997.6 |
| 20260505162103 | 52 | 197 | 4.3 | 5.2 | 0.00 | 0.00 | 0.00 | 94 | 997.6 |
| 20260505161859 | 52 | 161 | 3.5 | 4.3 | 0.00 | 0.00 | 0.00 | 94 | 997.6 |
| 20260505161655 | 51 | 183 | 2.6 | 2.6 | 0.00 | 0.00 | 0.00 | 93 | 997.6 |
| 20260505161452 | 52 | 165 | 4.3 | 4.3 | 0.00 | 0.00 | 0.00 | 94 | 997.6 |
| 20260505161430 | 51 | 166 | 4.3 | 4.3 | 0.00 | 0.00 | 0.00 | 94 | 997.6 |
| 20260505161011 | 51 | 165 | 2.6 | 2.6 | 0.00 | 0.00 | 0.00 | 94 | 997.6 |
| 20260505160807 | 51 | 195 | 3.5 | 4.3 | 0.00 | 0.00 | 0.00 | 94 | 997.6 |
| 20260505160603 | 51 | 195 | 2.6 | 3.5 | 0.00 | 0.00 | 0.00 | 95 | 997.6 |
| 20260505160359 | 51 | 201 | 1.7 | 1.7 | 0.00 | 0.00 | 0.00 | 94 | 997.6 |
| 20260505160155 | 51 | 162 | 1.7 | 2.6 | 0.00 | 0.00 | 0.00 | 95 | 997.6 |
| 20260505153121 | 50 | 195 | 3.5 | 4.3 | 0.00 | 0.00 | 0.00 | 95 | 997.6 |
| 20260505153059 | 50 | 204 | 2.6 | 3.5 | 0.00 | 0.00 | 0.00 | 95 | 997.6 |
| 20260505152823 | 50 | 180 | 2.6 | 3.5 | 0.00 | 0.00 | 0.00 | 95 | 997.6 |
| 20260505152405 | 50 | 206 | 2.6 | 3.5 | 0.00 | 0.00 | 0.00 | 95 | 997.3 |
| 20260505152202 | 50 | 171 | 3.5 | 4.3 | 0.00 | 0.00 | 0.00 | 95 | 997.6 |
| 20260505151958 | 50 | 177 | 2.6 | 3.5 | 0.00 | 0.00 | 0.00 | 95 | 997.6 |
| 20260505151754 | 50 | 200 | 4.3 | 4.3 | 0.00 | 0.00 | 0.00 | 95 | 997.6 |
| 20260505151550 | 50 | 232 | 4.3 | 5.2 | 0.00 | 0.00 | 0.00 | 95 | 997.6 |
| 20260505151346 | 50 | 198 | 6.1 | 6.1 | 0.00 | 0.00 | 0.00 | 95 | 997.6 |
| 20260505151142 | 50 | 178 | 5.2 | 5.2 | 0.00 | 0.00 | 0.00 | 95 | 997.6 |
| 20260505150938 | 50 | 196 | 4.3 | 5.2 | 0.00 | 0.00 | 0.00 | 95 | 997.6 |
| 20260505150734 | 50 | 229 | 5.2 | 6.1 | 0.00 | 0.00 | 0.00 | 95 | 997.3 |
| 20260505150531 | 50 | 211 | 4.3 | 4.3 | 0.00 | 0.00 | 0.00 | 95 | 997.6 |
| 20260505150508 | 50 | 234 | 6.1 | 6.1 | 0.00 | 0.00 | 0.00 | 95 | 997.3 |
| 20260505140635 | 51 | 183 | 4.3 | 5.2 | 0.00 | 0.00 | 0.00 | 95 | 997.0 |
| 20260505140431 | 50 | 187 | 3.5 | 4.3 | 0.00 | 0.00 | 0.00 | 95 | 997.0 |
| 20260505140227 | 50 | 170 | 4.3 | 6.1 | 0.00 | 0.00 | 0.00 | 95 | 997.0 |
| 20260505130210 | 50 | 161 | 3.5 | 4.3 | 0.00 | 0.00 | 0.00 | 94 | 996.6 |
| 20260505124831 | 50 | 157 | 3.5 | 4.3 | 0.00 | 0.00 | 0.00 | 93 | 996.6 |
| 20260505124627 | 50 | 139 | 5.2 | 5.2 | 0.00 | 0.00 | 0.00 | 93 | 996.3 |
| 20260505124424 | 50 | 160 | 4.3 | 4.3 | 0.00 | 0.00 | 0.00 | 93 | 996.3 |
| 20260505124402 | 50 | 141 | 3.5 | 4.3 | 0.00 | 0.00 | 0.00 | 93 | 996.6 |
| 20260505124126 | 51 | 143 | 3.5 | 4.3 | 0.00 | 0.00 | 0.00 | 93 | 996.6 |
| 20260505123709 | 50 | 156 | 6.1 | 6.1 | 0.00 | 0.00 | 0.00 | 93 | 996.6 |
| 20260505123505 | 51 | 160 | 5.2 | 6.1 | 0.00 | 0.00 | 0.00 | 93 | 996.6 |
| 20260505123302 | 50 | 160 | 5.2 | 6.1 | 0.00 | 0.00 | 0.00 | 93 | 996.6 |
| 20260505123058 | 50 | 133 | 5.2 | 6.1 | 0.00 | 0.00 | 0.00 | 93 | 996.6 |
| 20260505122854 | 50 | 135 | 4.3 | 5.2 | 0.00 | 0.00 | 0.00 | 93 | 996.6 |
| 20260505122650 | 50 | 143 | 6.1 | 7.0 | 0.00 | 0.00 | 0.00 | 93 | 996.6 |
| 20260505122447 | 50 | 150 | 6.1 | 6.1 | 0.00 | 0.00 | 0.00 | 93 | 996.6 |
| 20260505122243 | 50 | 163 | 5.2 | 6.1 | 0.00 | 0.00 | 0.00 | 93 | 996.3 |
| 20260505122039 | 51 | 155 | 5.2 | 6.1 | 0.00 | 0.00 | 0.00 | 93 | 996.6 |
| 20260505121835 | 50 | 152 | 5.2 | 6.1 | 0.00 | 0.00 | 0.00 | 93 | 996.3 |
| 20260505121813 | 50 | 146 | 5.2 | 6.1 | 0.00 | 0.00 | 0.00 | 93 | 996.3 |
| 20260505121356 | 50 | 153 | 5.2 | 5.2 | 0.00 | 0.00 | 0.00 | 93 | 996.6 |
| 20260505121152 | 50 | 164 | 4.3 | 5.2 | 0.00 | 0.00 | 0.00 | 93 | 996.6 |
| 20260505121130 | 50 | 157 | 4.3 | 4.3 | 0.00 | 0.00 | 0.00 | 93 | 996.6 |
| 20260505120712 | 50 | 186 | 3.5 | 4.3 | 0.00 | 0.00 | 0.00 | 93 | 996.3 |
| 20260505120649 | 51 | 191 | 4.3 | 6.1 | 0.00 | 0.00 | 0.00 | 93 | 996.6 |
| 20260505120414 | 51 | 180 | 3.5 | 4.3 | 0.00 | 0.00 | 0.00 | 93 | 996.6 |
| 20260505115955 | 51 | 164 | 4.3 | 5.2 | 0.00 | 0.00 | 0.00 | 93 | 996.3 |
| 20260505115751 | 50 | 153 | 4.3 | 5.2 | 0.00 | 0.00 | 0.00 | 93 | 996.3 |
| 20260505115547 | 51 | 157 | 5.2 | 6.1 | 0.00 | 0.00 | 0.00 | 93 | 996.3 |
| 20260505115343 | 51 | 181 | 5.2 | 6.1 | 0.00 | 0.00 | 0.00 | 93 | 996.3 |
| 20260505115140 | 51 | 157 | 5.2 | 6.1 | 0.00 | 0.00 | 0.00 | 93 | 996.6 |
| 20260505114936 | 51 | 166 | 3.5 | 4.3 | 0.00 | 0.00 | 0.00 | 93 | 996.6 |
| 20260505114732 | 51 | 152 | 4.3 | 4.3 | 0.00 | 0.00 | 0.00 | 92 | 996.3 |
| 20260505114529 | 51 | 166 | 3.5 | 4.3 | 0.00 | 0.00 | 0.00 | 92 | 996.3 |
| 20260505114325 | 51 | 156 | 4.3 | 4.3 | 0.00 | 0.00 | 0.00 | 92 | 996.3 |
| 20260505114121 | 51 | 174 | 5.2 | 6.1 | 0.00 | 0.00 | 0.00 | 92 | 996.3 |
| 20260505113917 | 51 | 126 | 4.3 | 6.1 | 0.00 | 0.00 | 0.00 | 92 | 995.9 |
| 20260505113713 | 51 | 153 | 4.3 | 4.3 | 0.00 | 0.00 | 0.00 | 92 | 996.3 |
| 20260505113510 | 51 | 160 | 4.3 | 4.3 | 0.00 | 0.00 | 0.00 | 92 | 996.3 |
| 20260505113306 | 51 | 175 | 5.2 | 6.1 | 0.00 | 0.00 | 0.00 | 92 | 996.3 |
| 20260505113102 | 51 | 190 | 6.1 | 6.1 | 0.00 | 0.00 | 0.00 | 92 | 996.3 |
| 20260505112859 | 51 | 155 | 4.3 | 5.2 | 0.00 | 0.00 | 0.00 | 92 | 996.3 |
| 20260505112655 | 51 | 175 | 6.1 | 7.0 | 0.00 | 0.00 | 0.00 | 92 | 996.3 |
| 20260505112633 | 51 | 191 | 6.1 | 7.0 | 0.00 | 0.00 | 0.00 | 92 | 996.3 |
| 20260505112214 | 51 | 175 | 6.1 | 7.0 | 0.00 | 0.00 | 0.00 | 92 | 996.3 |
| 20260505112152 | 51 | 171 | 6.1 | 7.0 | 0.00 | 0.00 | 0.00 | 91 | 996.3 |
| 20260505111734 | 51 | 153 | 7.0 | 8.7 | 0.00 | 0.00 | 0.00 | 92 | 996.3 |
| 20260505111530 | 51 | 172 | 7.0 | 7.0 | 0.00 | 0.00 | 0.00 | 91 | 996.3 |
| 20260505111326 | 51 | 158 | 6.1 | 6.1 | 0.00 | 0.00 | 0.00 | 91 | 996.3 |
| 20260505111122 | 51 | 183 | 7.0 | 8.7 | 0.00 | 0.00 | 0.00 | 91 | 996.3 |
| 20260505110918 | 51 | 151 | 7.0 | 8.7 | 0.00 | 0.00 | 0.00 | 91 | 996.3 |
| 20260505110710 | 51 | 152 | 7.0 | 7.8 | 0.00 | 0.00 | 0.00 | 91 | 996.3 |
| 20260505110507 | 51 | 155 | 7.8 | 8.7 | 0.00 | 0.00 | 0.00 | 91 | 996.3 |
| 20260505110445 | 51 | 148 | 6.1 | 6.1 | 0.00 | 0.00 | 0.00 | 91 | 996.3 |
| 20260505102034 | 51 | 153 | 8.7 | 10.4 | 0.00 | 0.00 | 0.00 | 90 | 996.3 |
| 20260505101831 | 51 | 154 | 6.1 | 7.0 | 0.00 | 0.00 | 0.00 | 90 | 995.9 |
| 20260505101627 | 51 | 160 | 7.8 | 8.7 | 0.00 | 0.00 | 0.00 | 90 | 995.9 |
| 20260505101423 | 51 | 155 | 8.7 | 9.6 | 0.00 | 0.00 | 0.00 | 90 | 995.9 |
| 20260505101220 | 51 | 161 | 7.8 | 8.7 | 0.00 | 0.00 | 0.00 | 90 | 995.9 |
| 20260505101016 | 51 | 144 | 5.2 | 6.1 | 0.00 | 0.00 | 0.00 | 90 | 996.3 |
| 20260505100812 | 51 | 159 | 7.8 | 8.7 | 0.00 | 0.00 | 0.00 | 90 | 995.9 |
| 20260505100750 | 51 | 149 | 8.7 | 9.6 | 0.00 | 0.00 | 0.00 | 90 | 995.9 |
| 20260505100332 | 51 | 168 | 7.8 | 9.6 | 0.00 | 0.00 | 0.00 | 90 | 995.9 |
| 20260505100128 | 51 | 153 | 7.8 | 8.7 | 0.00 | 0.00 | 0.00 | 90 | 995.9 |
| 20260505095924 | 51 | 167 | 9.6 | 12.2 | 0.00 | 0.00 | 0.00 | 90 | 995.9 |
| 20260505095902 | 51 | 172 | 7.8 | 8.7 | 0.00 | 0.00 | 0.00 | 90 | 995.9 |
| 20260505095626 | 51 | 147 | 9.6 | 11.3 | 0.00 | 0.00 | 0.00 | 90 | 995.9 |
| 20260505095351 | 51 | 170 | 7.0 | 7.8 | 0.00 | 0.00 | 0.00 | 90 | 995.9 |
| 20260505095115 | 51 | 162 | 7.8 | 8.7 | 0.00 | 0.00 | 0.00 | 90 | 995.9 |
| 20260505094840 | 51 | 166 | 7.0 | 7.8 | 0.00 | 0.00 | 0.00 | 90 | 995.9 |
| 20260505094422 | 51 | 157 | 7.8 | 8.7 | 0.00 | 0.00 | 0.00 | 90 | 995.9 |
| 20260505094218 | 51 | 167 | 7.8 | 8.7 | 0.00 | 0.00 | 0.00 | 90 | 995.9 |
| 20260505094014 | 51 | 165 | 6.1 | 7.0 | 0.00 | 0.00 | 0.00 | 90 | 995.9 |
| 20260505093810 | 51 | 156 | 7.8 | 8.7 | 0.00 | 0.00 | 0.00 | 89 | 995.9 |
| 20260505093607 | 51 | 171 | 7.8 | 8.7 | 0.00 | 0.00 | 0.00 | 90 | 995.9 |
| 20260505093545 | 51 | 167 | 8.7 | 10.4 | 0.00 | 0.00 | 0.00 | 90 | 995.9 |
| 20260505093310 | 51 | 159 | 5.2 | 6.1 | 0.00 | 0.00 | 0.00 | 90 | 995.9 |
| 20260505092851 | 51 | 174 | 8.7 | 9.6 | 0.00 | 0.00 | 0.00 | 90 | 995.9 |
| 20260505092647 | 51 | 164 | 7.0 | 7.8 | 0.00 | 0.00 | 0.00 | 90 | 995.6 |
| 20260505092443 | 51 | 161 | 8.7 | 8.7 | 0.00 | 0.00 | 0.00 | 90 | 995.9 |
| 20260505092239 | 51 | 163 | 7.0 | 8.7 | 0.00 | 0.00 | 0.00 | 90 | 995.9 |
| 20260505092036 | 51 | 149 | 8.7 | 10.4 | 0.00 | 0.00 | 0.00 | 90 | 995.6 |
| 20260505091832 | 51 | 161 | 7.0 | 7.8 | 0.00 | 0.00 | 0.00 | 90 | 995.6 |
| 20260505091628 | 51 | 175 | 8.7 | 9.6 | 0.00 | 0.00 | 0.00 | 90 | 995.6 |
| 20260505091605 | 51 | 161 | 7.8 | 8.7 | 0.00 | 0.00 | 0.00 | 90 | 995.6 |
| 20260505091147 | 51 | 162 | 9.6 | 10.4 | 0.00 | 0.00 | 0.00 | 90 | 995.6 |
| 20260505090944 | 51 | 148 | 7.8 | 9.6 | 0.00 | 0.00 | 0.00 | 90 | 995.9 |
| 20260505090922 | 51 | 155 | 6.1 | 6.1 | 0.00 | 0.00 | 0.00 | 90 | 995.6 |
| 20260505090505 | 51 | 154 | 7.0 | 7.8 | 0.00 | 0.00 | 0.00 | 90 | 995.6 |
| 20260505090259 | 51 | 162 | 6.1 | 6.1 | 0.00 | 0.00 | 0.00 | 90 | 995.6 |
| 20260505090237 | 51 | 148 | 7.0 | 8.7 | 0.00 | 0.00 | 0.00 | 90 | 995.6 |
| 20260505085817 | 51 | 158 | 9.6 | 10.4 | 0.00 | 0.00 | 0.00 | 90 | 995.9 |
| 20260505085614 | 51 | 150 | 9.6 | 10.4 | 0.00 | 0.00 | 0.00 | 90 | 995.9 |
| 20260505085410 | 52 | 180 | 6.1 | 7.0 | 0.00 | 0.00 | 0.00 | 90 | 995.6 |
| 20260505085348 | 52 | 160 | 10.4 | 11.3 | 0.00 | 0.00 | 0.00 | 89 | 995.9 |
| 20260505084930 | 52 | 166 | 7.8 | 9.6 | 0.00 | 0.00 | 0.00 | 89 | 995.6 |
| 20260505084727 | 52 | 165 | 10.4 | 12.2 | 0.00 | 0.00 | 0.00 | 90 | 995.9 |
| 20260505084523 | 52 | 199 | 8.7 | 9.6 | 0.00 | 0.00 | 0.00 | 90 | 995.6 |
| 20260505084319 | 52 | 156 | 10.4 | 11.3 | 0.00 | 0.00 | 0.00 | 89 | 995.6 |
| 20260505084115 | 52 | 174 | 9.6 | 11.3 | 0.00 | 0.00 | 0.00 | 89 | 995.6 |
| 20260505083911 | 52 | 156 | 7.8 | 8.7 | 0.00 | 0.00 | 0.00 | 90 | 995.9 |
| 20260505083708 | 52 | 158 | 7.8 | 8.7 | 0.00 | 0.00 | 0.00 | 89 | 995.6 |
| 20260505083504 | 52 | 153 | 9.6 | 11.3 | 0.00 | 0.00 | 0.00 | 89 | 995.6 |
| 20260505083300 | 52 | 163 | 11.3 | 13.0 | 0.00 | 0.00 | 0.00 | 89 | 995.6 |
| 20260505083238 | 52 | 138 | 11.3 | 12.2 | 0.00 | 0.00 | 0.00 | 89 | 995.6 |
| 20260505082820 | 52 | 155 | 8.7 | 10.4 | 0.00 | 0.00 | 0.00 | 89 | 995.6 |
| 20260505082758 | 52 | 130 | 9.6 | 10.4 | 0.00 | 0.00 | 0.00 | 89 | 995.6 |
| 20260505082339 | 52 | 151 | 9.6 | 10.4 | 0.00 | 0.00 | 0.00 | 89 | 995.6 |
| 20260505082135 | 52 | 156 | 11.3 | 12.2 | 0.00 | 0.00 | 0.00 | 89 | 995.6 |
| 20260505081931 | 52 | 165 | 9.6 | 9.6 | 0.00 | 0.00 | 0.00 | 89 | 995.6 |
| 20260505081727 | 52 | 155 | 11.3 | 11.3 | 0.00 | 0.00 | 0.00 | 89 | 995.6 |
| 20260505081523 | 52 | 155 | 12.2 | 13.0 | 0.00 | 0.00 | 0.00 | 89 | 995.6 |
| 20260505081319 | 52 | 164 | 11.3 | 12.2 | 0.00 | 0.00 | 0.00 | 89 | 995.3 |
| 20260505081115 | 52 | 149 | 12.2 | 15.6 | 0.00 | 0.00 | 0.00 | 89 | 995.3 |
| 20260505080911 | 52 | 146 | 10.4 | 13.0 | 0.00 | 0.00 | 0.00 | 89 | 995.6 |
| 20260505080707 | 52 | 150 | 8.7 | 10.4 | 0.00 | 0.00 | 0.00 | 89 | 995.6 |
| 20260505080504 | 52 | 174 | 9.6 | 9.6 | 0.00 | 0.00 | 0.00 | 89 | 995.6 |
| 20260505080300 | 52 | 165 | 10.4 | 12.2 | 0.00 | 0.00 | 0.00 | 89 | 995.6 |
| 20260505080056 | 52 | 167 | 9.6 | 10.4 | 0.00 | 0.00 | 0.00 | 89 | 995.6 |
| 20260505075852 | 52 | 166 | 10.4 | 12.2 | 0.00 | 0.00 | 0.00 | 89 | 995.3 |
| 20260505075830 | 52 | 149 | 9.6 | 11.3 | 0.00 | 0.00 | 0.00 | 89 | 995.3 |
| 20260505075413 | 52 | 159 | 9.6 | 10.4 | 0.00 | 0.00 | 0.00 | 89 | 995.3 |
| 20260505075209 | 52 | 152 | 9.6 | 11.3 | 0.00 | 0.00 | 0.00 | 89 | 995.3 |
| 20260505075006 | 52 | 144 | 9.6 | 11.3 | 0.00 | 0.00 | 0.00 | 89 | 995.3 |
| 20260505074944 | 52 | 154 | 7.8 | 8.7 | 0.00 | 0.00 | 0.00 | 89 | 995.3 |
| 20260505074527 | 52 | 135 | 7.8 | 9.6 | 0.00 | 0.00 | 0.00 | 89 | 995.3 |
| 20260505074323 | 52 | 172 | 9.6 | 11.3 | 0.00 | 0.00 | 0.00 | 89 | 995.6 |
| 20260505074119 | 52 | 153 | 11.3 | 12.2 | 0.00 | 0.00 | 0.00 | 89 | 995.3 |
| 20260505073915 | 52 | 161 | 7.8 | 9.6 | 0.00 | 0.00 | 0.00 | 89 | 995.6 |
| 20260505073711 | 52 | 161 | 9.6 | 11.3 | 0.00 | 0.00 | 0.00 | 89 | 995.3 |
| 20260505073507 | 52 | 173 | 8.7 | 8.7 | 0.00 | 0.00 | 0.00 | 89 | 995.6 |
| 20260505073304 | 52 | 173 | 11.3 | 13.9 | 0.00 | 0.00 | 0.00 | 89 | 995.3 |
| 20260505073242 | 52 | 161 | 11.3 | 12.2 | 0.00 | 0.00 | 0.00 | 89 | 995.3 |
| 20260505072825 | 52 | 142 | 10.4 | 12.2 | 0.00 | 0.00 | 0.00 | 90 | 995.3 |
| 20260505072621 | 52 | 155 | 11.3 | 12.2 | 0.00 | 0.00 | 0.00 | 90 | 995.3 |
| 20260505072417 | 52 | 169 | 10.4 | 13.0 | 0.00 | 0.00 | 0.00 | 90 | 995.3 |
| 20260505072213 | 52 | 156 | 11.3 | 11.3 | 0.00 | 0.00 | 0.00 | 89 | 995.3 |
| 20260505072010 | 52 | 174 | 10.4 | 11.3 | 0.00 | 0.00 | 0.00 | 89 | 995.3 |
| 20260505071806 | 52 | 159 | 12.2 | 13.0 | 0.00 | 0.00 | 0.00 | 89 | 995.3 |
| 20260505071743 | 52 | 165 | 10.4 | 12.2 | 0.00 | 0.00 | 0.00 | 89 | 995.3 |
| 20260505071326 | 52 | 153 | 10.4 | 11.3 | 0.00 | 0.00 | 0.00 | 89 | 995.3 |
| 20260505071122 | 52 | 167 | 9.6 | 11.3 | 0.00 | 0.00 | 0.00 | 90 | 995.3 |
| 20260505070919 | 52 | 126 | 10.4 | 12.2 | 0.00 | 0.00 | 0.00 | 90 | 995.3 |
| 20260505070857 | 52 | 152 | 11.3 | 12.2 | 0.00 | 0.00 | 0.00 | 91 | 994.9 |
| 20260505070440 | 52 | 164 | 9.6 | 10.4 | 0.00 | 0.00 | 0.00 | 91 | 995.3 |
| 20260505070418 | 51 | 156 | 7.8 | 9.6 | 0.00 | 0.00 | 0.00 | 92 | 995.3 |
| 20260505070000 | 51 | 146 | 9.6 | 9.6 | 0.00 | 0.00 | 0.00 | 92 | 995.3 |
| 20260505065757 | 51 | 166 | 9.6 | 11.3 | 0.00 | 0.00 | 0.00 | 91 | 994.9 |
| 20260505065553 | 51 | 150 | 7.8 | 8.7 | 0.00 | 0.00 | 0.00 | 91 | 995.3 |
| 20260505065349 | 51 | 166 | 9.6 | 10.4 | 0.00 | 0.00 | 0.00 | 91 | 995.3 |
| 20260505065145 | 51 | 168 | 9.6 | 9.6 | 0.00 | 0.00 | 0.00 | 91 | 995.3 |
| 20260505064941 | 51 | 155 | 7.8 | 8.7 | 0.00 | 0.00 | 0.00 | 91 | 995.3 |
| 20260505064919 | 51 | 159 | 7.8 | 8.7 | 0.00 | 0.00 | 0.00 | 91 | 995.3 |
| 20260505064502 | 51 | 186 | 7.8 | 8.7 | 0.00 | 0.00 | 0.00 | 91 | 994.9 |
| 20260505064258 | 51 | 163 | 7.0 | 7.8 | 0.00 | 0.00 | 0.00 | 91 | 995.3 |
| 20260505064236 | 51 | 161 | 7.8 | 8.7 | 0.00 | 0.00 | 0.00 | 91 | 994.9 |
| 20260505063818 | 51 | 162 | 9.6 | 10.4 | 0.00 | 0.00 | 0.00 | 91 | 994.9 |
| 20260505063614 | 51 | 165 | 7.8 | 8.7 | 0.00 | 0.00 | 0.00 | 91 | 994.9 |
| 20260505063410 | 51 | 155 | 6.1 | 7.0 | 0.00 | 0.00 | 0.00 | 91 | 994.9 |
| 20260505063207 | 51 | 162 | 6.1 | 7.8 | 0.00 | 0.00 | 0.00 | 90 | 994.9 |
| 20260505063003 | 52 | 174 | 7.0 | 7.0 | 0.00 | 0.00 | 0.00 | 90 | 995.3 |
| 20260505062759 | 52 | 162 | 6.1 | 7.0 | 0.00 | 0.00 | 0.00 | 90 | 994.9 |
| 20260505062555 | 52 | 183 | 7.8 | 9.6 | 0.00 | 0.00 | 0.00 | 89 | 995.3 |
| 20260505062351 | 52 | 164 | 7.8 | 9.6 | 0.00 | 0.00 | 0.00 | 90 | 994.9 |
| 20260505062147 | 52 | 163 | 7.0 | 7.8 | 0.00 | 0.00 | 0.00 | 89 | 994.9 |
| 20260505062126 | 52 | 155 | 7.8 | 9.6 | 0.00 | 0.00 | 0.00 | 89 | 995.3 |
| 20260505061707 | 52 | 132 | 8.7 | 9.6 | 0.00 | 0.00 | 0.00 | 89 | 995.3 |
| 20260505061503 | 52 | 126 | 7.8 | 10.4 | 0.00 | 0.00 | 0.00 | 89 | 994.9 |
| 20260505061300 | 53 | 159 | 7.8 | 10.4 | 0.00 | 0.00 | 0.00 | 89 | 994.9 |
| 20260505061056 | 53 | 143 | 11.3 | 12.2 | 0.00 | 0.00 | 0.00 | 89 | 994.9 |
| 20260505060852 | 53 | 164 | 10.4 | 11.3 | 0.00 | 0.00 | 0.00 | 89 | 994.9 |
| 20260505060649 | 53 | 134 | 8.7 | 9.6 | 0.00 | 0.00 | 0.00 | 89 | 994.9 |
| 20260505060627 | 53 | 144 | 10.4 | 11.3 | 0.00 | 0.00 | 0.00 | 89 | 994.9 |
| 20260505060208 | 53 | 168 | 10.4 | 12.2 | 0.00 | 0.00 | 0.00 | 89 | 994.9 |
| 20260505060004 | 53 | 149 | 7.8 | 8.7 | 0.00 | 0.00 | 0.00 | 89 | 994.9 |
| 20260505055800 | 53 | 143 | 10.4 | 12.2 | 0.00 | 0.00 | 0.00 | 90 | 994.6 |
| 20260505055556 | 53 | 145 | 7.0 | 8.7 | 0.00 | 0.00 | 0.00 | 90 | 994.9 |
| 20260505055353 | 53 | 131 | 7.8 | 8.7 | 0.00 | 0.00 | 0.00 | 90 | 994.9 |
| 20260505055148 | 53 | 174 | 9.6 | 11.3 | 0.00 | 0.00 | 0.00 | 91 | 994.9 |
| 20260505054944 | 52 | 155 | 7.8 | 8.7 | 0.00 | 0.00 | 0.00 | 91 | 994.9 |
| 20260505054741 | 52 | 145 | 6.1 | 7.0 | 0.00 | 0.00 | 0.00 | 91 | 994.9 |
| 20260505054537 | 52 | 176 | 7.0 | 7.8 | 0.00 | 0.00 | 0.00 | 90 | 994.9 |
| 20260505054333 | 52 | 164 | 6.1 | 6.1 | 0.00 | 0.00 | 0.00 | 90 | 994.9 |
| 20260505054129 | 52 | 143 | 6.1 | 6.1 | 0.00 | 0.00 | 0.00 | 89 | 994.9 |
| 20260505053926 | 53 | 164 | 6.1 | 6.1 | 0.00 | 0.00 | 0.00 | 89 | 995.3 |
| 20260505053722 | 53 | 183 | 5.2 | 6.1 | 0.00 | 0.00 | 0.00 | 89 | 994.9 |
| 20260505053518 | 53 | 161 | 6.1 | 7.8 | 0.00 | 0.00 | 0.00 | 89 | 994.9 |
| 20260505053314 | 53 | 173 | 6.1 | 6.1 | 0.00 | 0.00 | 0.00 | 88 | 995.3 |
| 20260505053110 | 53 | 177 | 7.8 | 7.8 | 0.00 | 0.00 | 0.00 | 88 | 994.6 |
| 20260505052907 | 53 | 173 | 7.8 | 7.8 | 0.00 | 0.00 | 0.00 | 88 | 994.9 |
| 20260505052703 | 53 | 167 | 7.8 | 8.7 | 0.00 | 0.00 | 0.00 | 88 | 994.9 |
| 20260505052459 | 53 | 179 | 7.0 | 7.0 | 0.00 | 0.00 | 0.00 | 88 | 994.6 |
| 20260505052256 | 53 | 184 | 5.2 | 6.1 | 0.00 | 0.00 | 0.00 | 88 | 994.9 |
| 20260505052052 | 54 | 180 | 7.0 | 8.7 | 0.00 | 0.00 | 0.00 | 88 | 994.6 |
| 20260505052030 | 54 | 184 | 7.8 | 9.6 | 0.00 | 0.00 | 0.00 | 88 | 994.9 |
| 20260505051754 | 54 | 164 | 9.6 | 10.4 | 0.00 | 0.00 | 0.00 | 88 | 994.6 |
| 20260505051519 | 54 | 172 | 7.8 | 8.7 | 0.00 | 0.00 | 0.00 | 89 | 994.6 |
| 20260505051244 | 54 | 156 | 7.8 | 8.7 | 0.00 | 0.00 | 0.00 | 89 | 994.9 |
| 20260505050825 | 54 | 176 | 7.0 | 7.8 | 0.00 | 0.00 | 0.00 | 89 | 994.9 |
| 20260505050622 | 54 | 169 | 7.0 | 7.8 | 0.00 | 0.00 | 0.00 | 88 | 994.9 |
| 20260505050418 | 54 | 163 | 5.2 | 6.1 | 0.00 | 0.00 | 0.00 | 88 | 994.9 |
| 20260505050214 | 54 | 176 | 6.1 | 7.0 | 0.00 | 0.00 | 0.00 | 88 | 994.9 |
| 20260505041614 | 57 | 180 | 7.0 | 7.0 | 0.00 | 0.00 | 0.00 | 84 | 994.2 |
| 20260505041411 | 57 | 158 | 7.0 | 7.8 | 0.00 | 0.00 | 0.00 | 85 | 994.6 |
| 20260505041207 | 57 | 166 | 6.1 | 6.1 | 0.00 | 0.00 | 0.00 | 85 | 994.2 |
| 20260505041003 | 57 | 157 | 5.2 | 6.1 | 0.00 | 0.00 | 0.00 | 85 | 994.2 |
| 20260505040759 | 57 | 190 | 4.3 | 5.2 | 0.00 | 0.00 | 0.00 | 84 | 994.2 |
| 20260505040556 | 57 | 184 | 4.3 | 5.2 | 0.00 | 0.00 | 0.00 | 84 | 993.9 |
| 20260505040352 | 58 | 164 | 4.3 | 6.1 | 0.00 | 0.00 | 0.00 | 84 | 994.2 |
| 20260505040148 | 58 | 170 | 3.5 | 3.5 | 0.00 | 0.00 | 0.00 | 84 | 993.9 |
| 20260505035944 | 58 | 181 | 2.6 | 3.5 | 0.00 | 0.00 | 0.00 | 83 | 993.9 |
| 20260505035741 | 58 | 179 | 2.6 | 2.6 | 0.00 | 0.00 | 0.00 | 83 | 993.9 |
| 20260505035719 | 58 | 190 | 3.5 | 4.3 | 0.00 | 0.00 | 0.00 | 82 | 993.9 |
| 20260505035300 | 59 | 195 | 2.6 | 3.5 | 0.00 | 0.00 | 0.00 | 81 | 993.9 |
| 20260505035239 | 59 | 191 | 1.7 | 2.6 | 0.00 | 0.00 | 0.00 | 81 | 993.9 |
| 20260505034821 | 59 | 180 | 2.6 | 3.5 | 0.00 | 0.00 | 0.00 | 81 | 993.9 |
| 20260505034617 | 59 | 210 | 2.6 | 3.5 | 0.00 | 0.00 | 0.00 | 80 | 993.6 |
| 20260505034413 | 59 | 208 | 2.6 | 3.5 | 0.00 | 0.00 | 0.00 | 80 | 993.9 |
| 20260505034210 | 59 | 195 | 1.7 | 2.6 | 0.00 | 0.00 | 0.00 | 80 | 993.6 |
| 20260505034006 | 59 | 196 | 3.5 | 4.3 | 0.00 | 0.00 | 0.00 | 80 | 993.6 |
| 20260505033802 | 59 | 203 | 4.3 | 6.1 | 0.00 | 0.00 | 0.00 | 80 | 993.6 |
| 20260505033559 | 60 | 177 | 2.6 | 3.5 | 0.00 | 0.00 | 0.00 | 80 | 993.6 |
| 20260505033355 | 60 | 161 | 1.7 | 2.6 | 0.00 | 0.00 | 0.00 | 80 | 993.6 |
| 20260505033151 | 60 | 176 | 0.9 | 1.7 | 0.00 | 0.00 | 0.00 | 80 | 993.6 |
| 20260505032947 | 60 | 231 | 2.6 | 3.5 | 0.00 | 0.00 | 0.00 | 80 | 993.6 |
| 20260505032743 | 60 | 281 | 1.7 | 2.6 | 0.00 | 0.00 | 0.00 | 80 | 993.6 |
| 20260505032540 | 60 | 256 | 3.5 | 4.3 | 0.00 | 0.00 | 0.00 | 79 | 993.6 |
| 20260505032336 | 60 | 238 | 2.6 | 3.5 | 0.00 | 0.00 | 0.00 | 79 | 993.6 |
| 20260505032132 | 61 | 238 | 2.6 | 3.5 | 0.00 | 0.00 | 0.00 | 78 | 993.6 |
| 20260505032110 | 61 | 217 | 3.5 | 4.3 | 0.00 | 0.00 | 0.00 | 78 | 993.6 |
| 20260505031834 | 61 | 233 | 7.8 | 8.7 | 0.00 | 0.00 | 0.00 | 77 | 993.6 |
| 20260505031600 | 62 | 232 | 5.2 | 6.1 | 0.00 | 0.00 | 0.00 | 77 | 993.2 |
| 20260505031140 | 62 | 191 | 7.8 | 8.7 | 0.00 | 0.00 | 0.00 | 77 | 993.2 |
| 20260505030937 | 62 | 236 | 6.1 | 7.0 | 0.00 | 0.00 | 0.00 | 78 | 993.2 |
| 20260505030733 | 62 | 227 | 5.2 | 6.1 | 0.00 | 0.00 | 0.00 | 77 | 993.2 |
| 20260505030711 | 62 | 224 | 5.2 | 7.0 | 0.00 | 0.00 | 0.00 | 78 | 992.9 |
| 20260505030253 | 62 | 223 | 5.2 | 6.1 | 0.00 | 0.00 | 0.00 | 78 | 993.2 |
| 20260505030049 | 62 | 201 | 5.2 | 6.1 | 0.00 | 0.00 | 0.00 | 79 | 992.9 |
| 20260505025845 | 62 | 180 | 4.3 | 5.2 | 0.00 | 0.00 | 0.00 | 80 | 992.9 |
| 20260505025641 | 62 | 185 | 4.3 | 5.2 | 0.00 | 0.00 | 0.00 | 80 | 992.9 |
| 20260505025437 | 63 | 192 | 4.3 | 4.3 | 0.00 | 0.00 | 0.00 | 80 | 992.9 |
| 20260505025233 | 63 | 184 | 6.1 | 6.1 | 0.00 | 0.00 | 0.00 | 79 | 992.9 |
| 20260505025029 | 63 | 152 | 5.2 | 6.1 | 0.00 | 0.00 | 0.00 | 79 | 992.9 |
| 20260505024825 | 63 | 183 | 7.0 | 8.7 | 0.00 | 0.00 | 0.00 | 79 | 992.6 |
| 20260505024621 | 64 | 173 | 6.1 | 7.0 | 0.00 | 0.00 | 0.00 | 80 | 992.9 |
| 20260505024418 | 64 | 178 | 7.0 | 8.7 | 0.00 | 0.00 | 0.00 | 79 | 992.6 |
| 20260505024356 | 64 | 159 | 7.0 | 7.8 | 0.00 | 0.00 | 0.00 | 79 | 992.9 |
| 20260505023938 | 64 | 174 | 5.2 | 6.1 | 0.00 | 0.00 | 0.00 | 79 | 992.9 |
| 20260505023734 | 64 | 173 | 6.1 | 6.1 | 0.00 | 0.00 | 0.00 | 79 | 992.6 |
| 20260505023531 | 64 | 196 | 7.8 | 8.7 | 0.00 | 0.00 | 0.00 | 78 | 992.9 |
| 20260505023327 | 64 | 155 | 6.1 | 7.0 | 0.00 | 0.00 | 0.00 | 78 | 992.6 |
| 20260505023305 | 65 | 193 | 5.2 | 6.1 | 0.00 | 0.00 | 0.00 | 78 | 992.9 |
| 20260505022846 | 65 | 183 | 7.0 | 8.7 | 0.00 | 0.00 | 0.00 | 77 | 992.6 |
| 20260505022642 | 65 | 183 | 5.2 | 6.1 | 0.00 | 0.00 | 0.00 | 78 | 992.6 |
| 20260505022438 | 65 | 169 | 5.2 | 6.1 | 0.00 | 0.00 | 0.00 | 78 | 992.9 |
| 20260505022234 | 65 | 165 | 5.2 | 6.1 | 0.00 | 0.00 | 0.00 | 77 | 992.9 |
| 20260505022031 | 65 | 184 | 7.8 | 8.7 | 0.00 | 0.00 | 0.00 | 75 | 992.6 |
| 20260505022009 | 66 | 180 | 6.1 | 7.0 | 0.00 | 0.00 | 0.00 | 75 | 992.9 |
| 20260505021551 | 66 | 172 | 6.1 | 6.1 | 0.00 | 0.00 | 0.00 | 75 | 992.6 |
| 20260505021347 | 66 | 181 | 7.0 | 7.0 | 0.00 | 0.00 | 0.00 | 74 | 992.6 |
| 20260505021144 | 66 | 168 | 6.1 | 6.1 | 0.00 | 0.00 | 0.00 | 73 | 992.6 |
| 20260505020939 | 66 | 178 | 6.1 | 6.1 | 0.00 | 0.00 | 0.00 | 74 | 992.9 |
| 20260505020918 | 66 | 180 | 6.1 | 7.8 | 0.00 | 0.00 | 0.00 | 73 | 992.6 |
| 20260505020500 | 66 | 169 | 6.1 | 7.0 | 0.00 | 0.00 | 0.00 | 73 | 992.9 |
| 20260505020256 | 67 | 159 | 6.1 | 7.0 | 0.00 | 0.00 | 0.00 | 73 | 992.6 |
| 20260505020052 | 67 | 173 | 6.1 | 7.8 | 0.00 | 0.00 | 0.00 | 73 | 992.9 |
| 20260505015848 | 67 | 164 | 6.1 | 6.1 | 0.00 | 0.00 | 0.00 | 72 | 992.9 |
| 20260505015826 | 67 | 163 | 7.0 | 7.8 | 0.00 | 0.00 | 0.00 | 71 | 992.6 |
| 20260505015408 | 67 | 171 | 6.1 | 7.0 | 0.00 | 0.00 | 0.00 | 70 | 992.9 |
| 20260505015204 | 67 | 156 | 7.0 | 7.8 | 0.00 | 0.00 | 0.00 | 71 | 992.6 |
| 20260505015142 | 67 | 151 | 5.2 | 6.1 | 0.00 | 0.00 | 0.00 | 70 | 992.6 |
| 20260505014725 | 67 | 175 | 5.2 | 6.1 | 0.00 | 0.00 | 0.00 | 70 | 992.9 |
| 20260505014521 | 67 | 171 | 4.3 | 6.1 | 0.00 | 0.00 | 0.00 | 70 | 992.9 |
| 20260505014318 | 67 | 150 | 7.0 | 7.0 | 0.00 | 0.00 | 0.00 | 69 | 992.9 |
| 20260505014114 | 67 | 164 | 6.1 | 6.1 | 0.00 | 0.00 | 0.00 | 68 | 992.9 |
| 20260505013910 | 67 | 191 | 7.0 | 7.8 | 0.00 | 0.00 | 0.00 | 69 | 992.9 |